New Orleans, LA

6:53 AM CDT on May 29, 2017 (GMT -0500)
New Orleans International

Weather History for KMSY - July, 2013

Change the Weather History Date:

Monday, July 1, 2013

  Actual Average Record
Temperature  
Mean Temperature 80 °F -  
Max Temperature 88 °F 91 °F 99 °F (1980)
Min Temperature 73 °F 72 °F 65 °F (1984)
Cooling Degree Days 16    
Growing Degree Days 30 (Base 50)    
Moisture  
Dew Point 65 °F    
Average Humidity 58    
Maximum Humidity 74    
Minimum Humidity 41    
Precipitation  
Precipitation 0.55 in - - ()
Sea Level Pressure  
Sea Level Pressure 29.87 in    
Wind  
Wind Speed 8 mph (NNW)    
Max Wind Speed 16 mph    
Max Gust Speed 22 mph    
Visibility 10 miles    
Events Rain    
Averages and records for this station are not official NWS values.
T = Trace of Precipitation, MM = Missing Value Source: NWS Daily Summary

Daily Weather History Graph

Daily Weather History Graph

Search for Another Location

Airport or City:

Trip Planner

Search our weather history database for the weather conditions in past years. The results will help you decide how hot, cold, wet, or windy it might be!

Date:

Astronomy

Jul. 01, 2013 Rise Set
Actual Time 6:03 AM CDT 8:06 PM CDT
Civil Twilight 5:36 AM CDT 8:33 PM CDT
Nautical Twilight 5:03 AM CDT 9:06 PM CDT
Astronomical Twilight 4:27 AM CDT 9:42 PM CDT
Moon 1:17 AM CDT (7/1) 2:35 PM CDT (7/1)
Length of Visible Light 14h 57m
Length of Day
14h 02m
Waning Crescent, 35% of the Moon is Illuminated
Jul 1
Waning Crescent
Jul 8
New
Jul 15
First Quarter
Jul 22
Full
Jul 29
Last Quarter

Hourly Weather History & Observations

Time (CDT) Temp. Heat Index Dew Point Humidity Pressure Visibility Wind Dir Wind Speed Gust Speed Precip Events Conditions
12:53 AM 80.1 °F 81.7 °F 64.0 °F 58% 29.82 in 10.0 mi NNE 11.5 mph - N/A   Clear
1:53 AM 79.0 °F - 64.9 °F 62% 29.82 in 10.0 mi NNE 9.2 mph - N/A   Clear
2:53 AM 78.1 °F - 66.0 °F 66% 29.82 in 10.0 mi NNE 8.1 mph - N/A   Clear
3:53 AM 75.9 °F - 66.0 °F 71% 29.83 in 10.0 mi NNE 6.9 mph - N/A   Scattered Clouds
4:53 AM 77.0 °F - 66.0 °F 69% 29.84 in 10.0 mi North 6.9 mph - N/A   Mostly Cloudy
5:53 AM 75.0 °F - 66.0 °F 73% 29.85 in 10.0 mi NNE 5.8 mph - N/A   Scattered Clouds
6:53 AM 77.0 °F - 66.0 °F 69% 29.87 in 10.0 mi North 5.8 mph - N/A   Scattered Clouds
7:53 AM 80.1 °F 82.3 °F 66.9 °F 64% 29.88 in 10.0 mi NNE 8.1 mph - N/A   Scattered Clouds
8:53 AM 81.0 °F 83.0 °F 66.0 °F 60% 29.88 in 10.0 mi North 6.9 mph - N/A   Scattered Clouds
9:53 AM 82.0 °F 83.8 °F 64.9 °F 56% 29.90 in 10.0 mi NNE 8.1 mph - N/A   Scattered Clouds
10:53 AM 84.0 °F 86.3 °F 66.0 °F 55% 29.90 in 10.0 mi North 5.8 mph - N/A   Scattered Clouds
11:53 AM 84.9 °F 86.1 °F 64.0 °F 49% 29.90 in 10.0 mi NNW 10.4 mph - N/A   Scattered Clouds
12:53 PM 84.9 °F 86.6 °F 64.9 °F 51% 29.89 in 10.0 mi NW 6.9 mph - N/A   Scattered Clouds
1:53 PM 86.0 °F 86.1 °F 61.0 °F 43% 29.87 in 10.0 mi North 11.5 mph 17.3 mph N/A   Scattered Clouds
2:53 PM 87.1 °F 87.8 °F 63.0 °F 44% 29.86 in 10.0 mi NW 6.9 mph 17.3 mph N/A   Mostly Cloudy
3:53 PM 86.0 °F 86.8 °F 63.0 °F 46% 29.86 in 10.0 mi NNW 9.2 mph - N/A   Mostly Cloudy
4:53 PM 87.1 °F 87.8 °F 63.0 °F 44% 29.86 in 10.0 mi WNW 3.5 mph - N/A   Mostly Cloudy
5:53 PM 84.9 °F 85.4 °F 62.1 °F 46% 29.86 in 10.0 mi NW 8.1 mph - N/A   Mostly Cloudy
6:53 PM 84.0 °F 85.4 °F 64.0 °F 51% 29.87 in 10.0 mi WNW 3.5 mph - N/A   Mostly Cloudy
7:53 PM 82.9 °F 84.4 °F 64.0 °F 53% 29.89 in 10.0 mi WSW 5.8 mph - N/A   Mostly Cloudy
8:53 PM 77.0 °F - 66.9 °F 71% 29.90 in 9.0 mi WSW 16.1 mph 21.9 mph 0.00 in Rain Light Rain
9:12 PM 77.0 °F - 66.2 °F 69% 29.91 in 4.0 mi South 10.4 mph 21.9 mph 0.31 in Rain Heavy Rain
9:39 PM 77.0 °F - 68.0 °F 74% 29.90 in 10.0 mi South 5.8 mph - 0.54 in   Overcast
9:53 PM 77.0 °F - 68.0 °F 74% 29.91 in 10.0 mi South 3.5 mph - 0.54 in   Overcast
10:53 PM 78.1 °F - 69.1 °F 74% 29.92 in 10.0 mi Calm Calm - N/A   Mostly Cloudy
11:53 PM 79.0 °F - 68.0 °F 69% 29.92 in 10.0 mi Calm Calm - N/A   Mostly Cloudy